Regional Weather Roundup
Issued by NWS

Home | Current Version | Previous Version | Graphics & Text | Print | Product List | Glossary On
Versions: 1 2 3 4 5 6 7 8 9 10 11 12 13 14 15 16 17 18 19 20 21 22 23 24 25 26 27 28 29 30 31 32 33 34 35 36 37 38 39 40 41 42 43 44 45 46 47 48 49 50
000
ASUS43 KOAX 291302
RWRNE

WEATHER ROUNDUP FOR NEBRASKA
NATIONAL WEATHER SERVICE OMAHA NE
800 AM CDT SAT AUG 29 2015

NOTES: SATELLITE DATA IS BEING USED TO AUGMENT CLOUD COVER ABOVE
       12000 FEET.
       "FAIR" INDICATES FEW OR NO CLOUDS BELOW 12,000 FEET WITH NO
       SIGNIFICANT WEATHER AND/OR OBSTRUCTIONS TO VISIBILITY.

  * THESE STATIONS DO NOT REPORT WEATHER SUCH AS RAIN...SNOW OR FOG.

NEZ001>004-019>022-054>056-291400-
NEBRASKA PANHANDLE

CITY           SKY/WX    TMP DP  RH WIND       PRES   REMARKS
SCOTTSBLUFF    CLEAR     53  49  86 SE3       30.17S
ALLIANCE       PTCLDY    49  46  90 S6        30.16R
CHADRON        CLEAR     52  48  86 CALM      30.10R FOG
KIMBALL        CLEAR     50  43  77 W3        30.22R
SIDNEY         CLEAR     52  45  77 W8        30.21R
$$

NEZ057>060-069>072-079>082-291400-
SOUTHWEST NEBRASKA

CITY           SKY/WX    TMP DP  RH WIND       PRES   REMARKS
NORTH PLATTE   CLOUDY    52  51  97 CALM      30.15R
IMPERIAL       CLEAR     60  55  83 W3        30.17R
MCCOOK         CLEAR     57  55  93 W3        30.13R
$$

NEZ005>010-023>029-035>040-094-291400-
NORTH CENTRAL NEBRASKA

CITY           SKY/WX    TMP DP  RH WIND       PRES   REMARKS
VALENTINE      CLEAR     55  54  96 SW5       30.08R
AINSWORTH      CLEAR     59  58  97 S6        30.09S
BROKEN BOW     CLEAR     59  56  89 CALM      30.12R
O`NEILL        SUNNY     56  56  99 CALM      30.10R
ORD            FOG       54  54 100 CALM      30.11R VSB 1/4
$$

NEZ041-046>049-061>064-073>077-083>087-291400-
SOUTH CENTRAL NEBRASKA

CITY           SKY/WX    TMP DP  RH WIND       PRES   REMARKS
GRAND ISLAND   FOG       58  58 100 CALM      30.12R VSB 1/4
AURORA         CLOUDY    59  59 100 N5        30.11R FOG
HASTINGS       FOG       60  59  96 N6        30.11R VSB 1/4
KEARNEY *      SUNNY     55  52  88 NW3       30.12R
YORK           CLOUDY    59  59 100 N6        30.10R
$$

NEZ011>018-030>034-042>045-291400-
NORTHEAST NEBRASKA

CITY           SKY/WX    TMP DP  RH WIND       PRES   REMARKS
NORFOLK        CLOUDY    59  57  93 CALM      30.09R
ALBION         FOG       56  54  95 CALM      30.10R VSB<1/4
BLAIR          CLOUDY    60  58  94 N6        30.06R FOG
COLUMBUS *     CLOUDY    59  54  82 N5        30.10R
FREMONT        CLOUDY    62  59  90 CALM      30.07S
TEKAMAH        CLOUDY    62  59  90 N6        30.06R
$$

NEZ050>053-065>068-078-088>093-291400-
SOUTHEAST NEBRASKA

CITY           SKY/WX    TMP DP  RH WIND       PRES   REMARKS
LINCOLN        DRIZZLE   61  60  97 N12       30.08R
OMAHA EPPLEY   DRIZZLE   61  60  97 N8        30.06R
BEATRICE       CLOUDY    62  61  97 N9        30.05S
FALLS CITY     CLOUDY    64  63  96 N9        30.01R
NEBRASKA CITY  CLOUDY    62  62  99 N7        30.04S FOG
PLATTSMOUTH    CLOUDY    61  59  94 CALM      30.05R FOG
$$

NEZ044-045-051>053-067-291400-
OMAHA AREA

CITY           SKY/WX    TMP DP  RH WIND       PRES   REMARKS
OMAHA EPPLEY   DRIZZLE   61  60  97 N8        30.06R
BLAIR          CLOUDY    60  58  94 N6        30.06R FOG
FREMONT        CLOUDY    62  59  90 CALM      30.07S
OFFUTT AFB     CLOUDY    62  59  93 N9        30.04R FOG
PLATTSMOUTH    CLOUDY    61  59  94 CALM      30.05R FOG
WAHOO          CLOUDY    61  59  94 N6        30.07S
$$




USA.gov is the U.S. government's official web portal to all federal, state and local government web resources and services.